Satellite: HRBE Catalog number: 37855 Epoch time: 13101.49834066 Element set: 466 Inclination: 101.7205 deg RA of node: 284.8029 deg Eccentricity: 0.0238917 Arg of perigee: 217.7083 deg Mean anomaly: 176.4407 deg Mean motion: 14.83152761 rev/day Decay rate: 1.1803e-04 rev/day^2 Epoch rev: 7856 Checksum: 310
Satellite: RS-39 Catalog number: 38051 Epoch time: 13101.72126822 Element set: 338 Inclination: 051.6373 deg RA of node: 170.9090 deg Eccentricity: 0.0012882 Arg of perigee: 025.7590 deg Mean anomaly: 120.5674 deg Mean motion: 15.30626511 rev/day Decay rate: 1.8029e-04 rev/day^2 Epoch rev: 6759 Checksum: 289
Satellite: E-STAR Catalog number: 38079 Epoch time: 13101.64217972 Element set: 36 Inclination: 069.4788 deg RA of node: 341.4101 deg Eccentricity: 0.0650109 Arg of perigee: 224.6717 deg Mean anomaly: 233.5360 deg Mean motion: 14.38271697 rev/day Decay rate: 4.9735e-04 rev/day^2 Epoch rev: 6014 Checksum: 303
Satellite: GOLIAT Catalog number: 38085 Epoch time: 13101.67770434 Element set: 963 Inclination: 069.4926 deg RA of node: 343.0183 deg Eccentricity: 0.0657562 Arg of perigee: 225.4114 deg Mean anomaly: 129.1654 deg Mean motion: 14.36568049 rev/day Decay rate: 4.0379e-04 rev/day^2 Epoch rev: 6010 Checksum: 305
Satellite: HORYU-2 Catalog number: 38340 Epoch time: 13101.91236674 Element set: 455 Inclination: 098.2098 deg RA of node: 049.0206 deg Eccentricity: 0.0014017 Arg of perigee: 102.7972 deg Mean anomaly: 257.4799 deg Mean motion: 14.70755914 rev/day Decay rate: 2.038e-05 rev/day^2 Epoch rev: 4837 Checksum: 306
Satellite: RS-40 Catalog number: 38736 Epoch time: 13101.90307978 Element set: 237 Inclination: 082.4746 deg RA of node: 196.4408 deg Eccentricity: 0.0023476 Arg of perigee: 110.4843 deg Mean anomaly: 249.1361 deg Mean motion: 12.42874267 rev/day Decay rate: 1.0e-07 rev/day^2 Epoch rev: 3201 Checksum: 285
Satellite: PROITERES Catalog number: 38756 Epoch time: 13101.80136122 Element set: 677 Inclination: 098.2565 deg RA of node: 177.6170 deg Eccentricity: 0.0011927 Arg of perigee: 323.1483 deg Mean anomaly: 036.8910 deg Mean motion: 14.74138275 rev/day Decay rate: 7.15e-06 rev/day^2 Epoch rev: 3161 Checksum: 288
Satellite: RAIKO Catalog number: 38852 Epoch time: 13101.36891619 Element set: 190 Inclination: 051.6402 deg RA of node: 070.9246 deg Eccentricity: 0.0015442 Arg of perigee: 110.2952 deg Mean anomaly: 249.9705 deg Mean motion: 15.66888836 rev/day Decay rate: 1.10359e-03 rev/day^2 Epoch rev: 2935 Checksum: 306
Satellite: FITSAT 1 Catalog number: 38853 Epoch time: 13101.12003251 Element set: 192 Inclination: 051.6423 deg RA of node: 070.0332 deg Eccentricity: 0.0012771 Arg of perigee: 118.5371 deg Mean anomaly: 241.6914 deg Mean motion: 15.71112487 rev/day Decay rate: 1.47214e-03 rev/day^2 Epoch rev: 2939 Checksum: 252
Satellite: TechEdSat Catalog number: 38854 Epoch time: 13101.75629694 Element set: 227 Inclination: 051.6341 deg RA of node: 060.6855 deg Eccentricity: 0.0011884 Arg of perigee: 130.8690 deg Mean anomaly: 229.3346 deg Mean motion: 15.87007629 rev/day Decay rate: 4.59981e-03 rev/day^2 Epoch rev: 2957 Checksum: 331
Satellite: F 1 Catalog number: 38855 Epoch time: 13101.12755561 Element set: 219 Inclination: 051.6329 deg RA of node: 064.7337 deg Eccentricity: 0.0011905 Arg of perigee: 124.4182 deg Mean anomaly: 235.7949 deg Mean motion: 15.84051636 rev/day Decay rate: 3.93176e-03 rev/day^2 Epoch rev: 2935 Checksum: 306
Satellite: WeWish Catalog number: 38856 Epoch time: 13069.98095549 Element set: 248 Inclination: 051.6166 deg RA of node: 215.0521 deg Eccentricity: 0.0008325 Arg of perigee: 316.0438 deg Mean anomaly: 044.8765 deg Mean motion: 16.41348316 rev/day Decay rate: 1.6701328e-01 rev/day^2 Epoch rev: 2458 Checksum: 318
/EX
participants (1)
-
Ray Hoad